Hourly Data Report for July 28, 2021

MIRAMICHI RCS
NEW BRUNSWICK
Current Station Operator: ECCC - MSC

47°00'34.000" N
65°27'54.000" W
33.00 m
8100989
71744
ACQ

Download Data

Hourly Data (July 2021)
Hourly Data Report for July 28, 2021
TIME
LST
Temp Definition
°C
Dew Point Definition
°C
Rel Hum Definition
%
Precip. Amount Definition
mm

Wind Dir Definition
10's deg

Wind Spd Definition
km/h
Visibility Definition
km
Stn Press Definition
kPa
Hmdx Definition


Wind Chill Definition


Weather Definition


00:00 13.7 10.3 80 0.0 23 7   100.70     LegendNANA
01:00 14.0 10.2 78 0.0 26 8   100.70     LegendNANA
02:00 13.5 10.1 80 0.0 26 9   100.71     LegendNANA
03:00 12.4 9.9 85 0.0 26 9   100.73     LegendNANA
04:00 12.3 10.2 87 0.0 25 9   100.74     LegendNANA
05:00 11.3 9.7 90 0.0 25 5   100.77     LegendNANA
06:00 12.1 9.9 86 0.0 27 8   100.80     LegendNANA
07:00 13.3 10.2 82 0.0 25 11   100.85     LegendNANA
08:00 15.5 11.1 75 0.0 27 7   100.86     LegendNANA
09:00 18.1 10.6 61 0.0 33 8   100.85     LegendNANA
10:00 18.3 10.4 60 0.0 30 12   100.86     LegendNANA
11:00 19.7 10.3 55 0.0 30 11   100.83     LegendNANA
12:00 20.4 9.7 50 0.0 27 7   100.78     LegendNANA
13:00 21.0 9.6 48 0.0 28 11   100.77     LegendNANA
14:00 20.9 7.7 43 0.0 31 14   100.76     LegendNANA
15:00 20.5 8.1 45 0.0 29 17   100.75     LegendNANA
16:00 21.8 7.5 40 0.0 31 13   100.75     LegendNANA
17:00 19.7 8.7 49 0.0 25 13   100.77     LegendNANA
18:00 19.8 9.7 52 0.0 29 8   100.77     LegendNANA
19:00 19.8 5.9 40 0.0 31 8   100.80     LegendNANA
20:00 16.5 8.5 59 0.0 30 4   100.84     LegendNANA
21:00 14.4 8.9 69 0.0 26 6   100.90     LegendNANA
22:00 12.8 8.2 74 0.0 27 7   100.90     LegendNANA
23:00 13.2 7.5 68 0.0 26 10   100.88     LegendNANA

Notes on Data Quality.

Legend

  • E = Estimated
  • M = Missing
  • NA = Not Available*
  • [empty] = Indicates an unobserved value
Date modified: